Consulta les dades en temps real de l'estació municipal de El Brull
| Hora UTC | 15:30 |
|---|---|
| Temperatura | 26.0 ºC |
| Humitat | 65.4 % |
| Pressió | 1021.7 hPa |
| Pluja | 0.0 mm |
| Velocitat vent | 11.5 km/h |
| Direcció vent | SSW |
| Radiació solar | 497.0 W/m² |
| Temperatura (ºC) | Humitat (%) | Pressió (hPa) | Velocitat vent (km/h) | Precipitació (mm) | Radiació solar (W/m²) | |||||||||||||
|---|---|---|---|---|---|---|---|---|---|---|---|---|---|---|---|---|---|---|
| Hora UTC | Aire | Humitat | Pressió | Vel. | Dir. | Vel. Max | Dir. | Intent. màx 5 min. | Rad. Sol. | |||||||||
| 00:10 | 22.4 | 47.1 | 1020.5 | 1.7 | NW | 4.5 | NW | 0.0 | 0.0 | |||||||||
| 00:20 | 21.6 | 49.0 | 1020.5 | 2.1 | NNE | 6.0 | NNW | 0.0 | 0.0 | |||||||||
| 00:30 | 20.9 | 50.4 | 1020.5 | 2.5 | SSE | 6.2 | NNW | 0.0 | 0.0 | |||||||||
| 00:40 | 20.6 | 50.7 | 1020.5 | 3.8 | SSE | 7.8 | SSE | 0.0 | 0.0 | |||||||||
| 00:50 | 20.3 | 51.9 | 1020.5 | 2.9 | SSE | 5.3 | SSW | 0.0 | 0.0 | |||||||||
| 01:00 | 20.2 | 51.7 | 1020.5 | 2.5 | SSE | 4.1 | SSE | 0.0 | 0.0 | |||||||||
| 01:10 | 20.3 | 51.7 | 1020.6 | 2.0 | S | 4.0 | SW | 0.0 | 0.0 | |||||||||
| 01:20 | 20.2 | 52.0 | 1020.6 | 3.2 | ESE | 8.5 | SE | 0.0 | 0.0 | |||||||||
| 01:30 | 20.4 | 52.2 | 1020.6 | 5.7 | SE | 10.7 | SE | 0.0 | 0.0 | |||||||||
| 01:40 | 20.5 | 52.5 | 1020.5 | 6.4 | SE | 14.9 | SE | 0.0 | 0.0 | |||||||||
| 01:50 | 20.8 | 52.7 | 1020.5 | 6.6 | SE | 16.3 | SE | 0.0 | 0.0 | |||||||||
| 02:00 | 21.1 | 51.8 | 1020.5 | 6.7 | SE | 16.0 | SE | 0.0 | 0.0 | |||||||||
| 02:10 | 20.9 | 52.5 | 1020.4 | 3.3 | SE | 11.5 | SE | 0.0 | 0.0 | |||||||||
| 02:20 | 20.6 | 53.2 | 1020.4 | 2.7 | SE | 9.4 | SSE | 0.0 | 0.0 | |||||||||
| 02:30 | 20.9 | 52.9 | 1020.4 | 3.3 | SE | 9.9 | SE | 0.0 | 0.0 | |||||||||
| 02:40 | 20.9 | 53.9 | 1020.4 | 2.9 | ESE | 8.1 | SE | 0.0 | 0.0 | |||||||||
| 02:50 | 20.9 | 54.2 | 1020.4 | 2.1 | ESE | 6.6 | SE | 0.0 | 0.0 | |||||||||
| 03:00 | 20.7 | 54.9 | 1020.4 | 1.9 | NE | 4.7 | NNW | 0.0 | 0.0 | |||||||||
| 03:20 | 20.0 | 55.0 | 1020.5 | 0.8 | SW | 4.2 | NNW | 0.0 | 0.0 | |||||||||
| 03:30 | 19.7 | 56.0 | 1020.5 | 0.8 | SE | 3.4 | ESE | 0.0 | 0.0 | |||||||||
| 03:40 | 19.7 | 56.5 | 1020.5 | 3.2 | ESE | 5.4 | ESE | 0.0 | 0.0 | |||||||||
| 03:50 | 19.7 | 54.7 | 1020.5 | 2.9 | SE | 4.5 | SE | 0.0 | 0.0 | |||||||||
| 04:00 | 19.9 | 55.1 | 1020.5 | 2.5 | SE | 5.3 | SSE | 0.0 | 0.0 | |||||||||
| 04:20 | 19.8 | 56.7 | 1020.5 | 0.7 | ESE | 2.1 | E | 0.0 | 0.0 | |||||||||
| 04:30 | 19.7 | 56.7 | 1020.5 | 0.8 | ENE | 3.3 | E | 0.0 | 0.0 | |||||||||
| 04:40 | 19.4 | 56.7 | 1020.5 | 0.8 | NW | 2.1 | WNW | 0.0 | 0.0 | |||||||||
| 04:50 | 19.2 | 55.3 | 1020.5 | 0.3 | SSW | 2.2 | SSW | 0.0 | 0.0 | |||||||||
| 05:00 | 19.1 | 56.2 | 1020.5 | 0.0 | NNE | 0.0 | 0.0 | 0.3 | ||||||||||
| 05:20 | 19.0 | 56.1 | 1020.6 | 0.0 | NNE | 0.0 | 0.0 | 3.8 | ||||||||||
| 05:30 | 18.9 | 56.6 | 1020.7 | 1.5 | ESE | 4.0 | SE | 0.0 | 0.0 | |||||||||
| 05:40 | 19.3 | 57.3 | 1020.8 | 1.5 | ESE | 5.9 | SSE | 0.0 | 11.0 | |||||||||
| 05:50 | 19.4 | 59.0 | 1020.7 | 6.5 | SE | 18.2 | ESE | 0.0 | 14.2 | |||||||||
| 06:00 | 19.7 | 58.3 | 1020.8 | 6.2 | SE | 18.1 | SE | 0.0 | 17.1 | |||||||||
| 06:20 | 20.3 | 52.0 | 1021.0 | 7.9 | SE | 16.8 | ESE | 0.0 | 26.3 | |||||||||
| 06:30 | 20.8 | 49.6 | 1021.1 | 7.2 | SE | 19.6 | SE | 0.0 | 30.3 | |||||||||
| 06:40 | 21.0 | 49.0 | 1021.2 | 5.8 | SE | 13.4 | SSE | 0.0 | 128.1 | |||||||||
| 06:50 | 21.5 | 48.7 | 1021.3 | 8.0 | SSE | 14.8 | SSE | 0.0 | 214.0 | |||||||||
| 07:10 | 22.6 | 46.5 | 1021.4 | 7.3 | S | 15.3 | SSE | 0.0 | 276.5 | |||||||||
| 07:20 | 23.0 | 46.5 | 1021.5 | 4.1 | S | 8.0 | SW | 0.0 | 306.9 | |||||||||
| 07:30 | 22.7 | 48.2 | 1021.5 | 5.6 | SSW | 9.5 | S | 0.0 | 338.1 | |||||||||
| 07:40 | 22.9 | 48.1 | 1021.6 | 5.9 | SSW | 16.0 | SE | 0.0 | 370.2 | |||||||||
| 07:50 | 23.3 | 47.4 | 1021.6 | 4.7 | S | 10.5 | S | 0.0 | 401.6 | |||||||||
| 08:00 | 24.0 | 46.8 | 1021.7 | 7.0 | S | 13.4 | SSW | 0.0 | 431.7 | |||||||||
| 08:10 | 24.1 | 46.3 | 1021.8 | 7.9 | S | 15.6 | SSE | 0.0 | 461.4 | |||||||||
| 08:20 | 24.1 | 46.3 | 1021.9 | 8.3 | S | 14.1 | S | 0.0 | 490.2 | |||||||||
| 08:30 | 24.5 | 46.0 | 1022.1 | 7.1 | S | 13.6 | SSE | 0.0 | 518.6 | |||||||||
| 08:40 | 24.5 | 45.3 | 1022.1 | 6.4 | SSW | 12.3 | SW | 0.0 | 546.0 | |||||||||
| 08:50 | 25.2 | 44.7 | 1022.2 | 6.4 | SSW | 13.8 | SW | 0.0 | 572.6 | |||||||||
| 09:10 | 25.9 | 43.6 | 1022.3 | 8.1 | SSW | 16.9 | SW | 0.0 | 623.0 | |||||||||
| 09:20 | 25.9 | 44.3 | 1022.3 | 9.7 | SSW | 18.5 | SSW | 0.0 | 646.0 | |||||||||
| 09:30 | 26.2 | 44.4 | 1022.4 | 8.3 | SSW | 18.9 | SSW | 0.0 | 666.7 | |||||||||
| 09:40 | 26.5 | 45.9 | 1022.5 | 10.2 | SSW | 23.3 | SSW | 0.0 | 686.6 | |||||||||
| 09:50 | 26.6 | 46.6 | 1022.5 | 10.1 | SSW | 20.5 | SSW | 0.0 | 706.9 | |||||||||
| 10:00 | 26.5 | 47.9 | 1022.5 | 11.6 | SSW | 22.0 | SSW | 0.0 | 725.8 | |||||||||
| 10:10 | 26.4 | 47.7 | 1022.5 | 10.7 | SSW | 21.9 | SW | 0.0 | 741.2 | |||||||||
| 10:20 | 26.4 | 46.0 | 1022.5 | 10.9 | SSW | 20.9 | S | 0.0 | 756.5 | |||||||||
| 10:30 | 26.5 | 46.0 | 1022.4 | 11.3 | SSW | 21.9 | SW | 0.0 | 771.1 | |||||||||
| 10:40 | 26.5 | 46.1 | 1022.5 | 9.6 | S | 21.2 | SSW | 0.0 | 782.9 | |||||||||
| 10:50 | 26.9 | 43.1 | 1022.5 | 12.0 | S | 27.3 | SSW | 0.0 | 794.4 | |||||||||
| 11:00 | 26.8 | 43.0 | 1022.4 | 12.1 | SSW | 24.2 | S | 0.0 | 803.0 | |||||||||
| 11:10 | 27.0 | 43.7 | 1022.4 | 11.1 | S | 20.0 | S | 0.0 | 812.0 | |||||||||
| 11:20 | 27.6 | 42.5 | 1022.4 | 10.7 | SSW | 23.1 | SSE | 0.0 | 818.0 | |||||||||
| 11:30 | 27.5 | 44.6 | 1022.4 | 11.1 | S | 22.7 | SSW | 0.0 | 824.0 | |||||||||
| 11:40 | 27.6 | 45.1 | 1022.4 | 11.6 | S | 23.5 | S | 0.0 | 827.0 | |||||||||
| 11:50 | 27.5 | 45.1 | 1022.3 | 11.9 | SSW | 21.9 | SSW | 0.0 | 829.0 | |||||||||
| 12:00 | 27.9 | 45.7 | 1022.2 | 9.9 | S | 27.2 | SSE | 0.0 | 830.0 | |||||||||
| 12:10 | 28.4 | 43.9 | 1022.2 | 9.8 | SSW | 21.5 | SW | 0.0 | 831.0 | |||||||||
| 12:20 | 28.7 | 43.8 | 1022.1 | 9.1 | SSW | 20.5 | SW | 0.0 | 829.0 | |||||||||
| 12:30 | 28.7 | 44.4 | 1022.1 | 8.1 | SW | 17.2 | W | 0.0 | 824.0 | |||||||||
| 12:40 | 28.2 | 45.4 | 1022.1 | 8.3 | S | 23.2 | SSW | 0.0 | 809.0 | |||||||||
| 12:50 | 28.7 | 46.0 | 1022.1 | 10.2 | SSW | 23.2 | S | 0.0 | 802.0 | |||||||||
| 13:00 | 28.4 | 46.4 | 1022.0 | 6.6 | SSW | 14.9 | SSE | 0.0 | 789.5 | |||||||||
| 13:10 | 28.4 | 47.2 | 1022.0 | 8.1 | SSW | 17.9 | SSW | 0.0 | 778.4 | |||||||||
| 13:20 | 28.9 | 46.8 | 1021.9 | 9.2 | SSW | 19.4 | SSW | 0.0 | 766.6 | |||||||||
| 13:30 | 29.0 | 46.6 | 1021.9 | 9.2 | S | 21.3 | S | 0.0 | 752.9 | |||||||||
| 13:40 | 29.3 | 46.3 | 1021.8 | 10.5 | SSW | 22.0 | S | 0.0 | 735.0 | |||||||||
| 13:50 | 29.1 | 47.3 | 1021.7 | 10.7 | SSW | 22.2 | SSW | 0.0 | 673.8 | |||||||||
| 14:00 | 29.1 | 48.4 | 1021.7 | 11.1 | SSW | 22.3 | SSW | 0.0 | 698.5 | |||||||||
| 14:10 | 28.7 | 50.4 | 1021.7 | 10.1 | S | 20.5 | SSW | 0.0 | 682.6 | |||||||||
| 14:20 | 28.5 | 51.8 | 1021.6 | 10.8 | SSW | 24.5 | SSW | 0.0 | 662.3 | |||||||||
| 14:30 | 28.2 | 54.2 | 1021.7 | 11.6 | SSW | 26.8 | SSW | 0.0 | 640.1 | |||||||||
| 14:40 | 27.7 | 56.8 | 1021.5 | 11.5 | SSW | 24.5 | SW | 0.0 | 616.0 | |||||||||
| 14:50 | 27.2 | 59.8 | 1021.6 | 12.3 | SSW | 26.1 | SW | 0.0 | 592.1 | |||||||||
| 15:00 | 26.8 | 61.9 | 1021.6 | 12.7 | SSW | 27.4 | S | 0.0 | 564.4 | |||||||||
| 15:10 | 26.5 | 63.3 | 1021.6 | 10.8 | SSW | 22.9 | SW | 0.0 | 544.3 | |||||||||
| 15:20 | 26.5 | 63.8 | 1021.7 | 10.8 | SSW | 25.2 | SSW | 0.0 | 527.4 | |||||||||
| 15:30 | 26.0 | 65.4 | 1021.7 | 11.5 | SSW | 23.2 | SSW | 0.0 | 497.0 | |||||||||
| Màxima | 29.3 | 65.4 | 1022.5 | 12.7 | SSW | 27.4 | S | 0.0 | 831.0 | |||||||||
| Mínima | 18.9 | 42.5 | 1020.4 | |||||||||||||||
| Total | 0.0 | |||||||||||||||||